Weather in Yanino-1

Russia / Saint-Petersburg and Leningrad Oblast     59°56′43″N   30°33′40″E
temp.,
°C
wind,
m/s
gust,
m/s
humid.,
%
clouds,
%
prec.,
mm/h
press.,
hPa
HPBL,
m
12 april, mon
mon1200:00+4se2765100 0.0 1029137
03:00+4e3882100 0.8 1028244
06:00+5ese31090100 0.6 1026243
09:00+9sse41381100 0.6 1025416
12:00+14s5135796 0.0 1024859
15:00+16s5125199 0.0 10241280
18:00+15s51052100 0.0 1022976
21:00+11sse311666 0.0 1022262
13 april, tue
tue1300:00+10sse41268100 0.0 1021384
03:00+8sse41174100 0.0 1020345
06:00+6sse31081100 0.0 1019282
09:00+9s477012 0.0 1019390
12:00+12ssw356069 0.0 1019697
15:00+11w5668100 0.0 1020435
18:00+6w4874100 0.0 1020316
21:00+4wnw4978100 0.0 1021338
14 april, wed
wed1400:00+4wnw2770100 0.0 1021302
03:00+3wnw3769100 0.0 1020279
06:00+3nw2772100 0.1 1019356
09:00+2w1281100 1.1 1019266
12:00+4wnw2471100 0.3 1020547
15:00+7wnw3455100 0.3 10201064
18:00+5w356793 0.0 1020357
21:00+2w248195 0.0 1022124
15 april, thu
thu1500:00+2nw228418 0.0 102333
03:00+2nne2681100 0.0 1024130
06:000nne268857 0.0 1025132
09:00+4ne376998 0.0 1026453
12:00+6ne4653100 0.0 1027955
15:00+7ne574867 0.0 10271038
18:00+6ne485214 0.0 1027836
21:00+3nne39691 0.0 1028244
16 april, fri
fri1600:00+2nne28760 0.0 1029174
03:00+1ne29824 0.0 1029205
06:000ne310825 0.0 1030219
09:00+5ne49599 0.0 1031526
12:00+8ne59465 0.0 1032857
15:00+9ne584594 0.0 1032893
18:00+8ne59558 0.0 1032878
21:00+5ne413680 0.0 1033406